Location: Marstown
(39.5056°N, 77.0820°W)
Time: 12:45:19
(UTC-05:00)

N. Korean satellite - Visible Passes

Search period start: 19 November 2017 00:00
Search period end: 29 November 2017 00:00
Orbit: 460 x 515 km, 97.2° (Epoch: 18 November)

Date Brightness Start Highest point End Pass type
(mag) Time Alt. Az. Time Alt. Az. Time Alt. Az.
19 Nov 9.4 06:15:29 10° NE 06:18:35 24° E 06:21:41 10° SSE visible
19 Nov 7.1 18:23:41 10° S 18:27:06 57° W 18:30:37 10° NNW visible
20 Nov 10.1 05:53:14 10° ENE 05:54:58 13° E 05:56:43 10° ESE visible
20 Nov 6.4 18:00:12 10° SSE 18:03:39 64° ENE 18:07:10 10° N visible
21 Nov 7.3 17:37:09 10° SE 17:40:16 30° ENE 17:43:25 10° N visible
21 Nov 9.8 19:12:00 10° SW 19:13:52 14° W 19:15:46 10° WNW visible
22 Nov 8.1 17:14:43 10° ESE 17:16:57 16° ENE 17:19:13 10° NNE visible
22 Nov 8.7 18:47:13 10° SSW 18:50:14 27° W 18:53:19 10° NW visible
23 Nov 9.4 06:15:04 10° NE 06:18:12 24° E 06:21:18 10° SSE visible
23 Nov 7.1 18:23:13 10° S 18:26:41 57° W 18:30:13 10° NNW visible
24 Nov 10.1 05:52:48 10° ENE 05:54:33 13° E 05:56:19 10° ESE visible
24 Nov 6.4 17:59:43 10° SSE 18:03:12 64° ENE 18:06:46 10° N visible
25 Nov 7.3 17:36:40 10° SE 17:39:48 30° ENE 17:43:00 10° N visible
25 Nov 9.8 19:11:27 10° SW 19:13:24 14° W 19:15:22 10° WNW visible
26 Nov 8.1 17:14:12 10° ESE 17:16:29 16° ENE 17:18:47 10° NNE visible
26 Nov 8.7 18:46:42 10° SSW 18:49:45 27° W 18:52:53 10° NW visible
27 Nov 9.4 06:14:37 10° NE 06:17:45 24° E 06:20:50 10° SSE visible
27 Nov 7.1 18:22:41 10° S 18:26:11 58° W 18:29:46 10° NNW visible
28 Nov 10.1 05:52:21 10° ENE 05:54:05 13° E 05:55:50 10° ESE visible
28 Nov 6.5 17:59:11 10° SSE 18:02:41 64° ENE 18:06:18 10° N visible
